Location: Boullarre
(49.1305°N, 3.0047°E)
Time: 00:00:01
(UTC+00:00)

Cosmos 2266 Rocket - Pass Details

Date: 03 February 2023
Orbit: 933 x 1008 km, 82.9° (Epoch: 01 April)

Event Time Altitude Azimuth Distance (km) Brightness Sun altitude
Rises 17:35:52 0° 348° (NNW) 3,718 7.0 -8.2°
Reaches altitude 10° 17:38:26 10° 347° (NNW) 2,755 6.4 -8.6°
Maximum altitude 17:44:42 70° 265° (W) 1,034 4.4 -9.6°
Drops below altitude 10° 17:50:48 10° 183° (S) 2,684 6.5 -10.6°
Sets 17:53:16 0° 181° (S) 3,616 7.2 -11.0°
